STARLINK-3892 (52488 NORAD) Tracking and Keplerian Element Data

This shows tracking and keplerian element data for the satellite.

Feedback or suggestion? Click here.




ElementValue
Catalog52488
NameSTARLINK-3892
Epoch Orbit130
Epoch Day167.08334491
Epoch Year2022
RAAN64.9749
Inclination53.2184
Eccentricity0.0001736
Argument of Perigee31.1027
Mean Anonmoly120.9881
Mean Motion15.73214776
Decay Rate0.00049136
L11 52488U 22049AP 22167.08334491 .00049136 00000+0 35224-3 0 9995
L22 52488 53.2184 64.9749 0001736 31.1027 120.9881 15.73214776 1308

Live tracking and technical data element details for STARLINK-3892 (NORAD 52488). STARLINK-3892 can be tracked NOW for your location showing map with azimuth and elevation plus other details from your city location.

Track the satellite on the map from your city or location and see movement details for azimuth, elevation, latitude, longitude, range, height, and movement on the map or in text.







IsCatalogInMostPopularTable: catalog: 52488, numindb: 1
Update: records affected: 1



GetName: 52488 STARLINK-3892

Hit Count: updated at: Mon, 27 Jun 2022 05:23:30 GMT